Location: McFarlands Corners
(41.4117°N, 81.3382°W)
Time: 01:10:45
(UTC+00:00)

Hubble Space Telescope - Visible Passes

Search period start: 13 October 2024 00:00
Search period end: 23 October 2024 00:00
Orbit: 503 x 507 km, 28.5° (Epoch: 12 October)

Date Brightness Start Highest point End Pass type
(mag) Time Alt. Az. Time Alt. Az. Time Alt. Az.
18 Oct 3.2 23:50:54 10° S 23:51:22 10° S 23:51:49 10° SSE visible
19 Oct 3.2 23:28:45 10° S 23:29:37 11° S 23:30:29 10° SSE visible
20 Oct 3.2 23:06:45 10° S 23:07:51 11° S 23:08:58 10° SSE visible
21 Oct 3.3 00:45:59 10° SSW 00:46:35 11° SSW 00:46:35 11° SSW visible
22 Oct 3.2 00:24:19 10° SSW 00:25:40 11° S 00:26:04 11° S visible
